AB8YS Weather Reports


time (UTC)temp
C
wind
direction
speed
KPH
gust
KPH
rain 1hr
cm
rain 24hr
cm
rain mn
cm
humidity
%
barometer
mb
20260903010032 27 264 0.0 0.0 0.00 0.00 0.00 79 1014.1
20260903004533 27 264 0.0 0.0 0.00 0.00 0.00 78 1014.2
20260903003031 28 264 0.0 0.0 0.00 0.00 0.00 77 1014.0
20260903001530 28 264 0.0 0.0 0.00 0.00 0.00 74 1014.0
20260903000030 29 264 0.0 0.0 0.00 0.00 0.00 72 1014.0
20260902234529 30 264 0.0 0.0 0.00 0.00 0.00 70 1013.9
20260902233036 30 264 0.0 0.0 0.00 0.00 0.00 68 1013.9
20260902231528 31 264 0.0 0.0 0.00 0.00 0.00 67 1013.9
20260902230027 31 264 0.0 0.0 0.00 0.00 0.00 64 1014.0
20260902224527 31 264 0.0 1.6 0.00 0.00 0.00 62 1014.0
20260902223026 31 275 0.0 1.6 0.00 0.00 0.00 61 1014.1
20260902221525 32 279 0.0 3.2 0.00 0.00 0.00 59 1014.1
20260902220029 32 270 0.0 1.6 0.00 0.00 0.00 61 1014.2
20260902214522 32 321 0.0 1.6 0.00 0.00 0.00 60 1014.2
20260902213021 32 269 0.0 1.6 0.00 0.00 0.00 60 1014.3
20260902211520 32 285 0.0 1.6 0.00 0.00 0.00 62 1014.3
20260902210020 32 277 0.0 1.6 0.00 0.00 0.00 63 1014.3
20260902204535 32 266 0.0 1.6 0.00 0.00 0.00 58 1014.5
20260902203018 33 267 0.0 0.0 0.00 0.00 0.00 58 1014.5
20260902201527 33 267 0.0 1.6 0.00 0.00 0.00 57 1014.6
20260902200015 33 283 0.0 3.2 0.00 0.00 0.00 54 1014.7
20260902194512 33 93 0.0 1.6 0.00 0.00 0.00 58 1014.9
20260902193011 34 275 0.0 3.2 0.00 0.00 0.00 54 1015.0
20260902191518 33 276 0.0 1.6 0.00 0.00 0.00 53 1015.2
20260902190009 34 261 0.0 3.2 0.00 0.00 0.00 54 1015.4
20260902184508 34 269 0.0 1.6 0.00 0.00 0.00 54 1015.5
20260902183006 34 265 0.0 3.2 0.00 0.00 0.00 55 1015.7
20260902181507 33 237 0.0 6.4 0.00 0.00 0.00 56 1015.7
20260902180006 33 262 0.0 1.6 0.00 0.00 0.00 58 1015.8
20260902174605 33 265 0.0 3.2 0.00 0.00 0.00 56 1016.0
20260902173058 33 271 0.0 1.6 0.00 0.00 0.00 58 1016.2
20260902171609 32 269 0.0 1.6 0.00 0.00 0.00 60 1016.4
20260902170056 33 274 0.0 1.6 0.00 0.00 0.00 66 1016.4
20260902164600 33 271 0.0 1.6 0.00 0.00 0.00 61 1016.4
20260902163053 32 257 0.0 1.6 0.00 0.00 0.00 64 1016.5
20260902161559 32 264 0.0 1.6 0.00 0.00 0.00 64 1016.6
20260902160050 32 269 0.0 1.6 0.00 0.00 0.00 66 1016.6
20260902154606 32 303 0.0 1.6 0.00 0.00 0.00 65 1016.6
20260902153047 32 255 0.0 4.8 0.00 0.00 0.00 66 1016.7
20260902151541 31 265 0.0 1.6 0.00 0.00 0.00 68 1016.7
20260902150039 31 269 0.0 1.6 0.00 0.00 0.00 70 1016.9
20260902144540 30 268 0.0 1.6 0.00 0.00 0.00 70 1016.9
20260902143033 30 271 0.0 0.0 0.00 0.00 0.00 71 1016.9
20260902141531 29 271 0.0 1.6 0.00 0.00 0.00 70 1016.8
20260902140036 29 271 0.0 1.6 0.00 0.00 0.00 72 1016.8
20260902134527 28 264 0.0 1.6 0.00 0.00 0.00 75 1016.7
20260902133024 28 264 0.0 1.6 0.00 0.00 0.00 76 1016.8
20260902131524 27 263 0.0 1.6 0.00 0.00 0.00 77 1016.8
20260902130016 27 263 0.0 6.4 0.00 0.00 0.00 78 1016.8
20260902124517 26 248 0.0 1.6 0.00 0.00 0.00 81 1016.8
20260902123008 25 248 0.0 0.0 0.00 0.00 0.00 85 1016.7
20260902121505 23 262 0.0 0.0 0.00 0.00 0.00 91 1016.6
20260902120008 23 262 0.0 0.0 0.00 0.00 0.00 92 1016.5
20260902114506 22 262 0.0 0.0 0.00 0.00 0.00 91 1016.4
20260902113003 23 262 0.0 0.0 0.00 0.00 0.00 91 1016.2
20260902111601 23 261 0.0 0.0 0.00 0.00 0.00 91 1016.1
20260902110106 23 261 0.0 0.0 0.00 0.00 0.00 91 1016.1
20260902104559 22 259 0.0 0.0 0.00 0.00 0.00 92 1016.1
20260902103106 22 259 0.0 0.0 0.00 0.00 0.00 92 1015.9
20260902101601 22 259 0.0 0.0 0.00 0.00 0.00 92 1015.9
20260902100057 22 259 0.0 0.0 0.00 0.00 0.00 92 1015.8
20260902094556 22 259 0.0 0.0 0.00 0.00 0.00 92 1015.9
20260902093132 22 259 0.0 0.0 0.00 0.00 0.00 92 1015.9
20260902091556 23 259 0.0 0.0 0.00 0.00 0.00 91 1015.7
20260902090058 23 259 0.0 0.0 0.00 0.00 0.00 91 1015.5
20260902084557 23 259 0.0 0.0 0.00 0.00 0.00 91 1015.5
20260902083053 23 259 0.0 0.0 0.00 0.00 0.00 92 1015.4
20260902081608 23 259 0.0 0.0 0.00 0.00 0.00 92 1015.3
20260902080047 23 259 0.0 0.0 0.00 0.00 0.00 91 1015.3
20260902074551 23 259 0.0 0.0 0.00 0.00 0.00 91 1015.2
20260902073045 23 259 0.0 0.0 0.00 0.00 0.00 91 1015.2
20260902071549 23 259 0.0 0.0 0.00 0.00 0.00 90 1015.2
20260902070042 23 259 0.0 0.0 0.00 0.00 0.00 90 1015.3
20260902064541 23 259 0.0 0.0 0.00 0.00 0.00 89 1015.2
20260902063044 23 259 0.0 0.0 0.00 0.00 0.00 88 1015.3
20260902061546 24 259 0.0 0.0 0.00 0.00 0.00 88 1015.4
20260902060035 24 259 0.0 0.0 0.00 0.00 0.00 87 1015.2
20260902054538 24 259 0.0 0.0 0.00 0.00 0.00 87 1015.3
20260902053034 24 259 0.0 0.0 0.00 0.00 0.00 86 1015.2
20260902051532 25 259 0.0 0.0 0.00 0.00 0.00 86 1015.2
20260902050033 25 259 0.0 0.0 0.00 0.00 0.00 86 1015.2
20260902044531 25 259 0.0 0.0 0.00 0.00 0.00 85 1015.3
20260902043030 25 259 0.0 0.0 0.00 0.00 0.00 84 1015.3
20260902041527 25 259 0.0 0.0 0.00 0.00 0.00 85 1015.4
20260902040026 25 259 0.0 0.0 0.00 0.00 0.00 85 1015.4
20260902034529 25 259 0.0 0.0 0.00 0.00 0.00 85 1015.3
20260902033025 25 259 0.0 0.0 0.00 0.00 0.00 85 1015.4
20260902031524 25 260 0.0 0.0 0.00 0.00 0.00 84 1015.4
20260902030025 25 259 0.0 0.0 0.00 0.00 0.00 83 1015.4
20260902024524 25 259 0.0 0.0 0.00 0.00 0.00 82 1015.4
20260902023023 25 259 0.0 0.0 0.00 0.00 0.00 82 1015.4
20260902021531 25 259 0.0 0.0 0.00 0.00 0.00 83 1015.3
20260902020023 26 259 0.0 0.0 0.00 0.00 0.00 81 1015.1
20260902014521 26 259 0.0 0.0 0.00 0.00 0.00 81 1015.1
20260902013021 26 259 0.0 0.0 0.00 0.00 0.00 81 1015.0
20260902011524 26 259 0.0 0.0 0.00 0.00 0.00 81 1014.9